Location: Sperry Observatory
(40.6664°N, 74.3236°W)
Time: 16:22:33
(UTC-05:00)

Amateur Radio Satellites - All Passes

Search period start: 20 November 2017 15:52
Search period end: 21 November 2017 15:52
Location: Sperry Observatory, 40.6664°N, 74.3236°W

Satellite Date Start Highest point End Downlink Frequencies (MHz)
Time Altitude Azimuth
AO-7 20 Nov 16:07:30 16:13:51 24° 266° (W) 16:20:15 .
BEESAT 20 Nov 16:09:44 16:14:08 38° 290° (WNW) 16:18:31 436.000
XW-2C 20 Nov 16:10:06 16:11:55 13° 66° (ENE) 16:13:45 145.795 - 145.815
LilacSat-2 20 Nov 16:10:44 16:12:51 15° 66° (ENE) 16:14:59 437.200
ITUPSAT 1 20 Nov 16:19:01 16:23:14 32° 292° (WNW) 16:27:26 437.325
XW-2F 20 Nov 16:20:57 16:23:19 16° 67° (ENE) 16:25:43 145.980 - 146.000
DOVE 4 20 Nov 16:26:45 16:31:42 68° 259° (W) 16:36:56 437.250
RS-15 20 Nov 16:28:23 16:34:51 16° 96° (E) 16:41:18 29.354- 29.394
MOZHAYETS 4 20 Nov 16:40:35 16:43:02 14° 297° (WNW) 16:45:28
CUBESAT XI-V 20 Nov 16:48:18 16:52:47 46° 288° (WNW) 16:57:16 437.345
KAITUO 1B 20 Nov 16:49:20 16:52:28 27° 71° (ENE) 16:55:37 145.475/437.950
CUTE-I 20 Nov 16:55:13 17:00:19 46° 70° (ENE) 17:05:26 437.470
HO-68 20 Nov 16:59:32 17:05:35 31° 61° (ENE) 17:11:39 435.675
KKS-1 20 Nov 16:59:39 17:04:03 52° 101° (E) 17:08:22 437.445
XW-2D 20 Nov 17:01:39 17:05:19 58° 75° (ENE) 17:09:01 145.860 - 145.880
XW-2B 20 Nov 17:16:23 17:20:06 87° 78° (ENE) 17:23:52 145.730 - 145.750
YUBILEINY 20 Nov 17:21:30 17:30:10 62° 269° (W) 17:38:48 435.215
STARS 20 Nov 17:26:13 17:30:21 39° 99° (E) 17:34:25 437.465
NO-84 20 Nov 17:28:39 17:31:00 15° 343° (NNW) 17:33:25 435.350 FM
CUTE 1.7 + AOD 2 20 Nov 17:29:43 17:33:16 27° 70° (ENE) 17:36:51 437.475
NUDT-PHONESAT 20 Nov 17:34:44 17:38:21 79° 256° (WSW) 17:42:02 437.300
UWE-3 20 Nov 17:42:00 17:44:13 14° 64° (ENE) 17:46:24 435.000/436.395/437.385
XW-2C 20 Nov 17:42:11 17:45:43 41° 261° (W) 17:49:17 145.795 - 145.815
LilacSat-2 20 Nov 17:43:18 17:46:47 37° 262° (W) 17:50:18 437.200
XW-2F 20 Nov 17:53:50 17:57:10 31° 263° (W) 18:00:32 145.980 - 146.000
SEEDS 20 Nov 18:01:19 18:05:09 37° 72° (ENE) 18:09:01 437.485
AAUSAT CUBESAT 2 20 Nov 18:11:08 18:14:14 21° 68° (ENE) 18:17:21 437.432
CUBEBUG 2 20 Nov 18:17:20 18:21:51 57° 75° (ENE) 18:26:16 437.445
KAITUO 1B 20 Nov 18:23:52 18:26:26 18° 266° (W) 18:29:02 145.475/437.950
AO-73 20 Nov 18:24:43 18:27:35 18° 67° (ENE) 18:30:24 145.935
RS-15 20 Nov 18:32:53 18:45:04 72° 116° (ESE) 18:57:14 29.354- 29.394
CUTE-I 20 Nov 18:36:24 18:40:32 22° 266° (W) 18:44:42 437.470
KKS-1 20 Nov 18:37:30 18:40:09 16° 297° (WNW) 18:42:47 437.445
Oscar 11 20 Nov 18:41:50 18:44:46 18° 66° (ENE) 18:47:43 .
HO-68 20 Nov 18:45:56 18:52:56 54° 259° (W) 19:00:00 435.675
STRAND 1 20 Nov 19:03:00 19:07:53 43° 99° (E) 19:12:43 437.568
STARS 20 Nov 19:03:16 19:06:23 19° 295° (WNW) 19:09:29 437.465
CUTE 1.7 + AOD 2 20 Nov 19:05:41 19:09:03 24° 265° (W) 19:12:29 437.475
ZACube-1 20 Nov 19:07:44 19:12:01 59° 74° (ENE) 19:16:12 437.345
XW-2A 20 Nov 19:07:49 19:11:07 64° 259° (W) 19:14:25 145.665 - 145.685
NO-84 20 Nov 19:08:30 19:09:52 11° 5° (N) 19:11:14 435.350 FM
UWE-3 20 Nov 19:15:48 19:20:13 58° 260° (W) 19:24:32 435.000/436.395/437.385
FO-29 20 Nov 19:37:10 19:43:58 31° 92° (E) 19:50:23 435.910
SEEDS 20 Nov 19:38:11 19:40:57 17° 268° (W) 19:43:44 437.485
AAUSAT CUBESAT 2 20 Nov 19:45:49 19:49:29 31° 264° (W) 19:53:11 437.432
nSIGHT-1 20 Nov 19:53:43 19:56:04 19° 132° (SE) 19:58:27 .
CUBEBUG 2 20 Nov 19:56:30 19:58:45 13° 269° (W) 20:01:00 437.445
AO-73 20 Nov 19:59:26 20:03:31 40° 262° (W) 20:07:31 145.935
Max Valier Satellite 20 Nov 20:02:41 20:05:06 17° 68° (ENE) 20:07:32 145.860
EO-88 20 Nov 20:03:32 20:05:00 12° 66° (ENE) 20:06:29 145.990 - 145.960
Oscar 11 20 Nov 20:16:35 20:20:36 39° 262° (W) 20:24:38 .
DELFI C3 20 Nov 20:21:55 20:25:41 45° 73° (ENE) 20:29:30 145.870
SO-50 20 Nov 20:31:45 20:34:03 14° 109° (ESE) 20:36:21 436.795
ISS 20 Nov 20:34:54 20:37:59 40° 137° (SE) 20:41:05 437.550
STRAND 1 20 Nov 20:42:49 20:46:46 23° 295° (WNW) 20:50:42 437.568
NO-84 20 Nov 20:45:14 20:48:33 22° 25° (NNE) 20:51:53 435.350 FM
ZACube-1 20 Nov 20:47:05 20:48:36 12° 270° (W) 20:50:07 437.345
RS-15 20 Nov 20:47:08 20:58:33 41° 320° (NW) 21:09:53 29.354- 29.394
UNISAT 6 20 Nov 20:48:14 20:50:55 16° 92° (E) 20:53:34 437.425
TIGRISAT 20 Nov 20:52:43 20:55:26 16° 92° (E) 20:58:07 435.000
FO-29 20 Nov 21:21:35 21:29:14 56° 291° (WNW) 21:36:27 435.910
ESTCUBE 1 20 Nov 21:25:01 21:27:29 15° 63° (ENE) 21:29:58 437.505/2401.250
nSIGHT-1 20 Nov 21:28:59 21:32:05 45° 329° (NNW) 21:35:12 .
EO-88 20 Nov 21:34:48 21:38:15 42° 261° (W) 21:41:43 145.990 - 145.960
Max Valier Satellite 20 Nov 21:35:28 21:38:41 29° 263° (W) 21:41:55 145.860
PRISM 20 Nov 21:57:11 22:00:55 31° 97° (E) 22:04:36 437.425
DELFI C3 20 Nov 21:58:48 22:00:40 13° 269° (W) 22:02:32 145.870
LO-87 20 Nov 22:00:52 22:04:17 41° 73° (ENE) 22:07:42 145.935 - 145.965
SO-50 20 Nov 22:09:32 22:13:58 61° 305° (NW) 22:18:25 436.795
ISS 20 Nov 22:11:40 22:14:33 27° 335° (NNW) 22:17:24 437.550
NO-84 20 Nov 22:22:05 22:26:23 86° 226° (SW) 22:30:37 435.350 FM
UNISAT 6 20 Nov 22:23:48 22:27:49 41° 288° (WNW) 22:31:48 437.425
TIGRISAT 20 Nov 22:28:19 22:32:18 40° 288° (WNW) 22:36:16 435.000
O/OREOS (USA 219) 20 Nov 22:29:16 22:33:19 31° 60° (ENE) 22:37:19 437.305
AIST 2D 20 Nov 22:35:23 22:38:20 24° 96° (E) 22:41:17 435.315
SPROUT 20 Nov 22:47:47 22:51:18 26° 68° (ENE) 22:54:51 437.525
QB50P2 20 Nov 22:56:51 22:59:40 17° 93° (E) 23:02:29 145.880/145.840
ESTCUBE 1 20 Nov 22:59:26 23:03:48 55° 260° (W) 23:08:14 437.505/2401.250
RS-15 20 Nov 23:06:53 23:15:44 22° 354° (N) 23:24:22 29.354- 29.394
nSIGHT-1 20 Nov 23:07:05 23:08:56 14° 348° (NNW) 23:10:47 .
FO-29 20 Nov 23:09:55 23:12:30 12° 310° (NW) 23:15:05 435.910
VELOX 1 20 Nov 23:22:07 23:26:15 40° 71° (ENE) 23:30:25 145.980
PRISM 20 Nov 23:32:48 23:35:59 21° 293° (WNW) 23:39:09 437.425
LO-87 20 Nov 23:36:36 23:37:53 12° 269° (W) 23:39:09 145.935 - 145.965
DUCHIFAT 1 20 Nov 23:46:19 23:50:18 43° 99° (E) 23:54:15 145.980
ISS 20 Nov 23:50:19 23:51:51 13° 354° (N) 23:53:23 437.550
EO-79 20 Nov 23:52:57 23:57:08 69° 101° (E) 00:01:18 145.935-145.965
SO-50 20 Nov 23:54:36 23:55:22 10° 325° (NW) 23:56:07 436.795
NANOSAT C BR1 20 Nov 23:56:30 00:00:41 67° 102° (ESE) 00:04:49 145.865
50 SAT 20 Nov 23:57:29 23:59:45 18° 69° (ENE) 00:02:02 437.505
NO-84 21 Nov 00:01:45 00:03:07 11° 240° (WSW) 00:04:28 435.350 FM
POLYITAN 1 21 Nov 00:08:09 00:12:20 79° 284° (WNW) 00:16:31 437.675
AIST 2D 21 Nov 00:08:49 00:11:19 18° 291° (WNW) 00:13:50 435.315
O/OREOS (USA 219) 21 Nov 00:08:51 00:12:34 25° 258° (WSW) 00:16:16 437.305
DX 1 21 Nov 00:09:22 00:13:09 30° 69° (ENE) 00:16:58 434.975-435.025
Oscar 19 21 Nov 00:13:19 00:15:29 13° 90° (E) 00:17:39 437.125/150
PCSat 21 Nov 00:13:43 00:19:08 82° 118° (ESE) 00:24:35 145.827
SPROUT 21 Nov 00:23:26 00:27:05 27° 264° (W) 00:30:45 437.525
QB50P2 21 Nov 00:31:41 00:35:34 37° 289° (WNW) 00:39:26 145.880/145.840
Gurwin Techsat 1B 21 Nov 00:34:33 00:37:32 15° 91° (E) 00:40:30 435.225
BUGSAT 1 21 Nov 00:40:38 00:44:28 41° 99° (E) 00:48:15 437.445
nSIGHT-1 21 Nov 00:44:41 00:46:13 13° 8° (N) 00:47:45 .
UKube-1 21 Nov 00:51:49 00:56:00 53° 73° (ENE) 01:00:15 .
VELOX 1 21 Nov 00:59:44 01:02:50 18° 267° (W) 01:05:57 145.980
DUCHIFAT 1 21 Nov 01:23:03 01:25:36 16° 295° (WNW) 01:28:08 145.980
RS-15 21 Nov 01:23:26 01:33:42 31° 29° (NNE) 01:43:30 29.354- 29.394
ISS 21 Nov 01:27:14 01:29:22 16° 15° (NNE) 01:31:30 437.550
50 SAT 21 Nov 01:29:11 01:31:42 21° 264° (W) 01:34:15 437.505
EO-79 21 Nov 01:31:20 01:32:18 11° 298° (WNW) 01:33:15 145.935-145.965
BEESAT 3 21 Nov 01:32:55 01:35:14 15° 110° (ESE) 01:37:34 437.485
NANOSAT C BR1 21 Nov 01:34:39 01:35:48 11° 298° (WNW) 01:36:56 145.865
BEESAT 21 Nov 01:38:36 01:42:28 25° 67° (ENE) 01:46:22 436.000
DX 1 21 Nov 01:45:45 01:49:18 24° 265° (W) 01:52:53 434.975-435.025
ITUPSAT 1 21 Nov 01:47:44 01:51:53 30° 68° (ENE) 01:56:02 437.325
Oscar 19 21 Nov 01:50:10 01:55:19 75° 286° (WNW) 02:00:28 437.125/150
M-CUBED/EXP-1 PRIME 21 Nov 01:56:36 02:00:02 21° 99° (E) 02:03:29 437.505
PCSat 21 Nov 01:59:37 02:03:11 18° 317° (NW) 02:06:48 145.827
MOZHAYETS 4 21 Nov 02:03:06 02:07:32 54° 73° (ENE) 02:11:59
Gurwin Techsat 1B 21 Nov 02:12:38 02:17:56 67° 287° (WNW) 02:23:11 435.225
AO-7 21 Nov 02:15:17 02:21:33 23° 93° (E) 02:27:48 .
CUBESAT XI-V 21 Nov 02:15:26 02:18:24 17° 64° (ENE) 02:21:23 437.345
BUGSAT 1 21 Nov 02:17:04 02:19:28 16° 295° (WNW) 02:21:52 437.445
nSIGHT-1 21 Nov 02:20:17 02:23:12 32° 28° (NNE) 02:26:07 .
UKube-1 21 Nov 02:30:17 02:32:20 13° 269° (W) 02:34:24 .
BEESAT 2 21 Nov 02:42:28 02:45:44 24° 113° (ESE) 02:49:02 435.950
ISS 21 Nov 03:03:08 03:06:22 60° 33° (NNE) 03:09:35 437.550
BEESAT 3 21 Nov 03:08:32 03:12:22 46° 306° (NW) 03:16:16 437.485
BEESAT 21 Nov 03:15:44 03:20:04 34° 262° (W) 03:24:25 436.000
ITUPSAT 1 21 Nov 03:25:32 03:29:38 28° 264° (W) 03:33:46 437.325
AO-85 21 Nov 03:27:20 03:30:36 26° 113° (ESE) 03:33:57 145.980
M-CUBED/EXP-1 PRIME 21 Nov 03:30:12 03:34:28 42° 293° (WNW) 03:38:51 437.505
RS-15 21 Nov 03:36:19 03:48:17 82° 57° (ENE) 03:59:31 29.354- 29.394
ITAMSAT 1 21 Nov 03:41:55 03:47:08 72° 102° (ESE) 03:52:18 435.822/435.867
MOZHAYETS 4 21 Nov 03:42:32 03:45:00 14° 269° (W) 03:47:28
CUBESAT XI-V 21 Nov 03:50:55 03:55:21 48° 261° (W) 03:59:50 437.345
nSIGHT-1 21 Nov 03:56:34 03:59:24 29° 225° (SW) 04:02:12 .
KKS-1 21 Nov 03:57:02 04:01:18 46° 72° (ENE) 04:05:37 437.445
AO-7 21 Nov 04:06:40 04:15:01 76° 291° (WNW) 04:23:21 .
BEESAT 2 21 Nov 04:19:44 04:23:18 30° 310° (NW) 04:26:56 435.950
STARS 21 Nov 04:22:14 04:26:13 34° 70° (ENE) 04:30:14 437.465
DOVE 4 21 Nov 04:26:18 04:31:05 36° 96° (E) 04:35:38 437.250
YUBILEINY 21 Nov 04:26:19 04:33:48 33° 84° (E) 04:41:20 435.215
ISS 21 Nov 04:40:38 04:42:30 14° 230° (SW) 04:44:22 437.550
SO-50 21 Nov 05:01:30 05:04:26 16° 41° (NE) 05:07:22 436.795
AO-85 21 Nov 05:07:33 05:10:54 26° 312° (NW) 05:14:23 145.980
CUTE-I 21 Nov 05:13:27 05:17:07 18° 92° (E) 05:20:46 437.470
XW-2C 21 Nov 05:15:15 05:18:01 19° 94° (E) 05:20:48 145.795 - 145.815
LilacSat-2 21 Nov 05:16:48 05:19:48 22° 95° (E) 05:22:49 437.200
ITAMSAT 1 21 Nov 05:23:04 05:25:57 15° 300° (WNW) 05:28:51 435.822/435.867
XW-2F 21 Nov 05:25:51 05:28:58 24° 95° (E) 05:32:04 145.980 - 146.000
KKS-1 21 Nov 05:35:15 05:38:05 16° 267° (W) 05:40:55 437.445
RS-15 21 Nov 05:50:24 05:59:12 26° 259° (W) 06:07:44 29.354- 29.394
FO-29 21 Nov 05:51:38 05:54:56 14° 52° (NE) 05:58:22 435.910
KAITUO 1B 21 Nov 05:53:41 05:57:15 40° 98° (E) 06:00:48 145.475/437.950
STARS 21 Nov 05:59:12 06:02:36 22° 265° (W) 06:06:02 437.465
AO-7 21 Nov 06:01:23 06:06:25 18° 311° (NW) 06:11:29 .
DOVE 4 21 Nov 06:04:15 06:08:32 27° 294° (WNW) 06:12:40 437.250
XW-2D 21 Nov 06:08:03 06:11:52 87° 283° (WNW) 06:15:41 145.860 - 145.880
CUBEBUG 2 21 Nov 06:10:59 06:12:00 11° 90° (E) 06:12:59 437.445
HO-68 21 Nov 06:14:12 06:20:27 31° 96° (E) 06:26:38 435.675
STRAND 1 21 Nov 06:18:20 06:23:23 60° 73° (ENE) 06:28:28 437.568
YUBILEINY 21 Nov 06:21:41 06:30:09 53° 283° (WNW) 06:38:46 435.215
XW-2B 21 Nov 06:22:56 06:26:41 59° 285° (WNW) 06:30:26 145.730 - 145.750
NUDT-PHONESAT 21 Nov 06:38:32 06:42:09 53° 285° (WNW) 06:45:47 437.300
SO-50 21 Nov 06:40:46 06:45:25 78° 240° (WSW) 06:50:08 436.795
XW-2C 21 Nov 06:48:55 06:52:11 28° 289° (WNW) 06:55:28 145.795 - 145.815
CUTE 1.7 + AOD 2 21 Nov 06:49:34 06:53:47 57° 100° (E) 06:57:59 437.475
LilacSat-2 21 Nov 06:50:50 06:54:01 25° 290° (WNW) 06:57:11 437.200
CUTE-I 21 Nov 06:52:15 06:57:30 55° 288° (WNW) 07:02:42 437.470
ZACube-1 21 Nov 06:58:40 06:59:37 11° 90° (E) 07:00:33 437.345
XW-2F 21 Nov 06:59:57 07:02:57 22° 291° (WNW) 07:05:57 145.980 - 146.000
UWE-3 21 Nov 07:05:55 07:09:25 26° 96° (E) 07:12:54 435.000/436.395/437.385
SEEDS 21 Nov 07:20:14 07:24:30 78° 102° (ESE) 07:28:45 437.485
PCSat 21 Nov 07:20:52 07:22:45 12° 37° (NE) 07:24:38 145.827
AAUSAT CUBESAT 2 21 Nov 07:27:30 07:31:26 38° 98° (E) 07:35:21 437.432
KAITUO 1B 21 Nov 07:28:52 07:30:51 14° 294° (WNW) 07:32:51 145.475/437.950
FO-29 21 Nov 07:31:55 07:38:27 70° 72° (ENE) 07:45:50 435.910
CUBEBUG 2 21 Nov 07:44:54 07:49:00 57° 286° (WNW) 07:53:03 437.445
UNISAT 6 21 Nov 07:46:56 07:49:40 16° 65° (ENE) 07:52:22 437.425
AO-73 21 Nov 07:47:16 07:51:05 35° 97° (E) 07:54:54 145.935
TIGRISAT 21 Nov 07:51:15 07:54:02 16° 65° (ENE) 07:56:46 435.000
STRAND 1 21 Nov 07:59:51 08:02:57 16° 269° (W) 08:06:03 437.568
HO-68 21 Nov 08:01:30 08:08:22 50° 293° (WNW) 08:15:11 435.675
XW-2A 21 Nov 08:01:53 08:05:12 58° 284° (WNW) 08:08:31 145.665 - 145.685
Oscar 11 21 Nov 08:03:44 08:07:45 36° 97° (E) 08:11:45 .
CUTE 1.7 + AOD 2 21 Nov 08:27:08 08:29:07 13° 296° (WNW) 08:31:06 437.475
ZACube-1 21 Nov 08:32:10 08:36:15 59° 286° (WNW) 08:40:21 437.345
UWE-3 21 Nov 08:42:26 08:45:47 24° 291° (WNW) 08:49:07 435.000/436.395/437.385
PRISM 21 Nov 08:46:15 08:49:26 22° 67° (ENE) 08:52:38 437.425
PCSat 21 Nov 09:01:55 09:07:18 60° 58° (ENE) 09:12:39 145.827
AAUSAT CUBESAT 2 21 Nov 09:03:45 09:06:33 18° 294° (WNW) 09:09:21 437.432
EO-88 21 Nov 09:04:21 09:06:33 15° 93° (E) 09:08:44 145.990 - 145.960
Max Valier Satellite 21 Nov 09:05:20 09:08:18 23° 95° (E) 09:11:15 145.860
FO-29 21 Nov 09:19:24 09:24:13 21° 272° (W) 09:29:27 435.910
UNISAT 6 21 Nov 09:21:29 09:25:57 52° 260° (W) 09:30:21 437.425
AO-73 21 Nov 09:24:10 09:27:04 19° 293° (WNW) 09:29:58 145.935
TIGRISAT 21 Nov 09:25:50 09:30:18 51° 260° (W) 09:34:42 435.000
FALCONSAT 3 21 Nov 09:31:16 09:34:00 20° 161° (SSE) 09:36:45 435.103
DELFI C3 21 Nov 09:33:11 09:37:12 80° 102° (ESE) 09:41:11 145.870
Oscar 11 21 Nov 09:40:30 09:43:37 20° 293° (WNW) 09:46:44 .
BEESAT 3 21 Nov 09:49:50 09:50:57 11° 39° (NE) 09:52:04 437.485
QB50P2 21 Nov 09:49:53 09:52:01 14° 64° (ENE) 09:54:09 145.880/145.840
PRISM 21 Nov 10:20:53 10:24:30 30° 263° (W) 10:28:11 437.425
EO-88 21 Nov 10:36:59 10:40:15 32° 288° (WNW) 10:43:31 145.990 - 145.960
DUCHIFAT 1 21 Nov 10:37:34 10:41:16 30° 70° (ENE) 10:44:58 145.980
Max Valier Satellite 21 Nov 10:39:09 10:42:00 22° 291° (WNW) 10:44:51 145.860
AIST 2D 21 Nov 10:41:21 10:44:43 53° 260° (W) 10:48:08 435.315
EO-79 21 Nov 10:44:34 10:48:38 48° 73° (ENE) 10:52:44 145.935-145.965
PCSat 21 Nov 10:46:33 10:50:10 18° 255° (WSW) 10:53:47 145.827
NANOSAT C BR1 21 Nov 10:47:47 10:51:50 45° 72° (ENE) 10:55:52 145.865
ESTCUBE 1 21 Nov 10:52:11 10:56:12 30° 96° (E) 11:00:12 437.505/2401.250
POLYITAN 1 21 Nov 10:59:44 11:03:58 72° 75° (ENE) 11:08:12 437.675
BEESAT 2 21 Nov 11:00:15 11:02:51 16° 44° (NE) 11:05:26 435.950
LO-87 21 Nov 11:00:51 11:04:21 53° 100° (E) 11:07:47 145.935 - 145.965
FALCONSAT 3 21 Nov 11:09:13 11:12:37 35° 176° (S) 11:16:02 435.103
QB50P2 21 Nov 11:23:10 11:27:20 54° 260° (W) 11:31:30 145.880/145.840
BEESAT 3 21 Nov 11:25:09 11:29:07 87° 58° (ENE) 11:32:59 437.485
Oscar 19 21 Nov 11:29:20 11:32:54 19° 63° (ENE) 11:36:29 437.125/150
BUGSAT 1 21 Nov 11:29:48 11:33:24 28° 70° (ENE) 11:36:59 437.445
Gurwin Techsat 1B 21 Nov 11:54:51 11:59:04 25° 65° (ENE) 12:03:19 435.225
AO-85 21 Nov 11:57:19 12:01:22 28° 49° (NE) 12:05:38 145.980
SPROUT 21 Nov 12:08:26 12:12:33 49° 99° (E) 12:16:39 437.525
DUCHIFAT 1 21 Nov 12:13:39 12:16:56 22° 265° (W) 12:20:13 145.980
EO-79 21 Nov 12:22:22 12:24:38 14° 268° (W) 12:26:54 145.935-145.965
NANOSAT C BR1 21 Nov 12:25:23 12:27:44 15° 268° (W) 12:30:07 145.865
ESTCUBE 1 21 Nov 12:29:09 12:32:52 25° 292° (WNW) 12:36:34 437.505/2401.250
BEESAT 2 21 Nov 12:36:57 12:40:54 55° 242° (WSW) 12:44:46 435.950
O/OREOS (USA 219) 21 Nov 12:40:59 12:45:12 37° 105° (ESE) 12:49:26 437.305
M-CUBED/EXP-1 PRIME 21 Nov 12:42:29 12:45:03 19° 61° (ENE) 12:47:46 437.505
50 SAT 21 Nov 12:46:52 12:48:48 15° 94° (E) 12:50:43 437.505
FALCONSAT 3 21 Nov 12:48:05 12:51:20 29° 191° (S) 12:54:36 435.103
VELOX 1 21 Nov 12:48:09 12:52:38 84° 102° (ESE) 12:57:05 145.980
BUGSAT 1 21 Nov 13:05:20 13:08:42 23° 265° (W) 13:12:04 437.445
Oscar 19 21 Nov 13:06:50 13:11:48 52° 260° (W) 13:16:49 437.125/150
AO-7 21 Nov 13:13:56 13:21:03 34° 58° (ENE) 13:28:12 .
ITAMSAT 1 21 Nov 13:23:11 13:25:54 14° 60° (ENE) 13:28:36 435.822/435.867
DX 1 21 Nov 13:33:04 13:37:23 57° 101° (E) 13:41:41 434.975-435.025
Gurwin Techsat 1B 21 Nov 13:33:44 13:38:45 43° 261° (W) 13:43:49 435.225
AO-85 21 Nov 13:37:25 13:41:52 39° 244° (WSW) 13:46:34 145.980
NO-84 21 Nov 13:38:19 13:40:10 13° 122° (ESE) 13:42:04 435.350 FM
SPROUT 21 Nov 13:45:38 13:48:01 15° 296° (WNW) 13:50:23 437.525
MOZHAYETS 4 21 Nov 14:00:07 14:02:07 13° 90° (E) 14:04:04
UKube-1 21 Nov 14:14:39 14:19:00 80° 285° (WNW) 14:23:19 .
M-CUBED/EXP-1 PRIME 21 Nov 14:16:08 14:19:15 29° 259° (W) 14:22:34 437.505
50 SAT 21 Nov 14:18:14 14:20:54 24° 289° (WNW) 14:23:32 437.505
O/OREOS (USA 219) 21 Nov 14:21:03 14:24:42 23° 302° (WNW) 14:28:22 437.305
FALCONSAT 3 21 Nov 14:28:10 14:29:50 13° 205° (SSW) 14:31:29 435.103
YUBILEINY 21 Nov 14:37:20 14:42:18 16° 60° (ENE) 14:47:15 435.215
ITAMSAT 1 21 Nov 14:59:27 15:04:41 77° 258° (WSW) 15:09:56 435.822/435.867
AO-7 21 Nov 15:05:17 15:13:23 58° 257° (WSW) 15:21:34 .
DX 1 21 Nov 15:10:48 15:13:04 14° 297° (WNW) 15:15:20 434.975-435.025
NO-84 21 Nov 15:13:17 15:16:56 66° 319° (NW) 15:20:54 435.350 FM
BEESAT 21 Nov 15:15:26 15:20:08 59° 101° (ESE) 15:24:49 436.000
ITUPSAT 1 21 Nov 15:25:17 15:30:04 74° 103° (ESE) 15:34:48 437.325
DOVE 4 21 Nov 15:30:36 15:35:10 35° 69° (ENE) 15:39:55 437.250
MOZHAYETS 4 21 Nov 15:35:07 15:39:38 61° 286° (WNW) 15:44:08
